EW8215 Weather Reports


time (UTC)temp
C
wind
direction
speed
KPH
gust
KPH
rain 1hr
cm
rain 24hr
cm
rain mn
cm
humidity
%
barometer
mb
20211025031504 23 137 0.0 0.0 0.00 0.00 0.00 88 1011.9
20211025031005 23 117 0.0 3.2 0.00 0.00 0.00 87 1011.9
20211025030505 23 107 0.0 3.2 0.00 0.00 0.00 86 1011.9
20211025030004 23 125 1.6 3.2 0.00 0.00 0.00 83 1011.8
20211025025504 23 136 1.6 3.2 0.00 0.00 0.00 83 1011.6
20211025025004 23 140 1.6 3.2 0.00 0.00 0.00 84 1011.5
20211025024503 23 128 0.0 3.2 0.00 0.00 0.00 84 1011.5
20211025024004 23 137 0.0 3.2 0.00 0.00 0.00 84 1011.5
20211025023504 23 114 0.0 3.2 0.00 0.00 0.00 84 1011.5
20211025023004 23 132 0.0 3.2 0.00 0.00 0.00 83 1011.5
20211025022504 23 148 1.6 3.2 0.00 0.00 0.00 84 1011.5
20211025022004 23 158 1.6 3.2 0.00 0.00 0.00 85 1011.5
20211025021504 23 126 0.0 3.2 0.00 0.00 0.00 85 1011.2
20211025021004 23 113 1.6 3.2 0.00 0.00 0.00 85 1011.2
20211025020504 23 156 0.0 3.2 0.00 0.00 0.00 85 1011.2
20211025020004 23 124 1.6 3.2 0.00 0.00 0.00 83 1011.2
20211025015504 23 123 1.6 3.2 0.00 0.00 0.00 84 1010.8
20211025015005 24 124 0.0 3.2 0.00 0.00 0.00 84 1010.8
20211025014505 24 133 0.0 3.2 0.00 0.00 0.00 84 1010.8
20211025014004 24 130 3.2 3.2 0.00 0.00 0.00 83 1010.8
20211025013504 25 120 1.6 3.2 0.00 0.00 0.00 80 1010.8
20211025013004 25 129 0.0 3.2 0.00 0.00 0.00 79 1010.8
20211025012504 25 148 0.0 0.0 0.00 0.00 0.00 78 1010.8
20211025012004 25 157 0.0 0.0 0.00 0.00 0.00 78 1010.8
20211025011504 25 127 0.0 0.0 0.00 0.00 0.00 78 1010.8
20211025011004 25 134 0.0 0.0 0.00 0.00 0.00 78 1010.8
20211025010504 25 129 0.0 0.0 0.00 0.00 0.00 79 1010.8
20211025010004 25 121 0.0 0.0 0.00 0.00 0.00 79 1010.8
20211025005504 25 122 1.6 3.2 0.00 0.00 0.00 77 1010.8
20211025005004 25 122 0.0 3.2 0.00 0.00 0.00 74 1010.8
20211025004504 26 166 3.2 8.0 0.00 0.00 0.00 74 1010.8
20211025004005 26 143 3.2 8.0 0.00 0.00 0.00 75 1010.5
20211025003504 26 179 1.6 8.0 0.00 0.00 0.00 75 1010.5
20211025003004 26 162 1.6 3.2 0.00 0.00 0.00 76 1010.5
20211025002503 26 182 1.6 8.0 0.00 0.00 0.00 76 1010.6
20211025002005 26 134 0.0 3.2 0.00 0.00 0.00 76 1010.8
20211025001504 26 147 0.0 0.0 0.00 0.00 0.00 76 1010.8
20211025001005 26 124 0.0 0.0 0.00 0.00 0.00 75 1010.8
20211025000504 26 143 0.0 3.2 0.00 0.00 0.00 75 1010.5
20211025000004 27 136 0.0 3.2 0.00 0.00 0.00 74 1010.5
20211024235504 27 167 0.0 3.2 0.00 0.00 0.00 73 1010.2
20211024235004 27 122 0.0 3.2 0.00 0.00 0.00 72 1010.2
20211024234504 27 145 1.6 3.2 0.00 0.00 0.00 71 1010.2
20211024234004 27 145 0.0 3.2 0.00 0.00 0.00 70 1010.2
20211024233504 28 180 1.6 3.2 0.00 0.00 0.00 69 1010.2
20211024233004 28 205 1.6 3.2 0.00 0.00 0.00 68 1010.2
20211024232504 28 157 0.0 3.2 0.00 0.00 0.00 68 1010.2
20211024232004 28 167 0.0 3.2 0.00 0.00 0.00 68 1010.2
20211024231504 29 147 1.6 8.0 0.00 0.00 0.00 67 1009.8
20211024231004 29 233 3.2 16.1 0.00 0.00 0.00 65 1010.2
20211024230504 30 190 3.2 8.0 0.00 0.00 0.00 65 1010.2
20211024230005 30 149 1.6 3.2 0.00 0.00 0.00 66 1010.2
20211024225504 30 163 1.6 8.0 0.00 0.00 0.00 64 1009.9
20211024225004 30 242 8.0 16.1 0.00 0.00 0.00 63 1009.8
20211024224504 30 172 4.8 12.9 0.00 0.00 0.00 61 1009.9
20211024224004 30 196 3.2 8.0 0.00 0.00 0.00 60 1010.2
20211024223504 30 200 3.2 12.9 0.00 0.00 0.00 61 1009.8
20211024223004 30 149 1.6 12.9 0.00 0.00 0.00 62 1010.2
20211024222505 30 136 0.0 3.2 0.00 0.00 0.00 62 1009.8
20211024222003 30 195 1.6 12.9 0.00 0.00 0.00 63 1009.8
20211024221504 30 167 4.8 12.9 0.00 0.00 0.00 63 1010.2
20211024221004 30 172 4.8 12.9 0.00 0.00 0.00 61 1010.2
20211024220505 30 208 4.8 12.9 0.00 0.00 0.00 61 1010.1
20211024220004 30 170 6.4 12.9 0.00 0.00 0.00 61 1010.2
20211024215504 30 170 4.8 16.1 0.00 0.00 0.00 61 1010.2
20211024215004 30 184 3.2 16.1 0.00 0.00 0.00 61 1010.2
20211024214504 30 201 4.8 8.0 0.00 0.00 0.00 61 1010.2
20211024214004 30 148 4.8 20.9 0.00 0.00 0.00 60 1010.2
20211024213504 30 180 6.4 20.9 0.00 0.00 0.00 59 1009.9
20211024213004 30 163 6.4 16.1 0.00 0.00 0.00 59 1009.8
20211024212505 30 166 3.2 24.1 0.00 0.00 0.00 60 1009.8
20211024212004 30 180 4.8 24.1 0.00 0.00 0.00 61 1009.8
20211024211504 30 167 4.8 12.9 0.00 0.00 0.00 60 1009.5
20211024211004 30 195 3.2 12.9 0.00 0.00 0.00 63 1009.6
20211024210504 30 208 4.8 16.1 0.00 0.00 0.00 62 1009.8
20211024210004 30 159 8.0 16.1 0.00 0.00 0.00 63 1009.8
20211024205504 30 147 6.4 16.1 0.00 0.00 0.00 62 1009.6
20211024205004 30 197 3.2 16.1 0.00 0.00 0.00 61 1009.8
20211024204504 30 144 9.7 20.9 0.00 0.00 0.00 60 1009.8
20211024204004 30 107 3.2 16.1 0.00 0.00 0.00 60 1009.8
20211024203515 30 207 9.7 16.1 0.00 0.00 0.00 58 1009.8
20211024203004 30 188 4.8 12.9 0.00 0.00 0.00 60 1009.8
20211024202504 30 134 8.0 16.1 0.00 0.00 0.00 62 1009.8
20211024202004 30 160 4.8 20.9 0.00 0.00 0.00 64 1010.1
20211024201504 30 162 8.0 20.9 0.00 0.00 0.00 64 1009.8
20211024201004 30 226 8.0 12.9 0.00 0.00 0.00 62 1010.1
20211024200504 30 229 3.2 20.9 0.00 0.00 0.00 64 1009.8
20211024200004 30 193 9.7 20.9 0.00 0.00 0.00 64 1010.2
20211024195504 30 194 6.4 20.9 0.00 0.00 0.00 63 1010.1
20211024195004 30 161 9.7 27.4 0.00 0.00 0.00 63 1010.2
20211024194503 29 173 6.4 24.1 0.00 0.00 0.00 66 1010.2
20211024194020 29 148 9.7 24.1 0.00 0.00 0.00 65 1010.2
20211024193516 29 157 4.8 16.1 0.00 0.00 0.00 66 1010.2
20211024192504 28 168 9.7 16.1 0.00 0.00 0.00 67 1010.2
20211024192004 28 137 8.0 27.4 0.00 0.00 0.00 66 1010.2
20211024191507 28 193 3.2 12.9 0.00 0.00 0.00 72 1010.5
20211024191025 27 163 4.8 20.9 0.00 0.00 0.00 73 1010.5
20211024190503 27 150 9.7 20.9 0.00 0.00 0.00 74 1010.5
20211024190005 27 150 4.8 20.9 0.00 0.00 0.00 77 1010.8
20211024185505 27 168 8.0 20.9 0.00 0.00 0.00 77 1010.8
20211024185004 27 213 6.4 16.1 0.00 0.00 0.00 76 1010.9
20211024184504 27 225 4.8 12.9 0.00 0.00 0.00 77 1011.2
20211024184005 27 210 6.4 12.9 0.00 0.00 0.00 76 1011.2
20211024183504 27 212 6.4 12.9 0.00 0.00 0.00 75 1011.5
20211024183005 27 161 3.2 12.9 0.00 0.00 0.00 77 1011.5
20211024182004 26 150 3.2 12.9 0.00 0.00 0.00 79 1011.5
20211024181504 26 172 4.8 16.1 0.00 0.00 0.00 78 1011.9
20211024181004 26 212 3.2 12.9 0.00 0.00 0.00 81 1011.9
20211024180504 26 167 4.8 12.9 0.00 0.00 0.00 81 1011.9
20211024180004 26 142 4.8 12.9 0.00 0.00 0.00 82 1011.9
20211024175504 25 158 3.2 12.9 0.00 0.00 0.00 83 1012.2
20211024175005 25 251 1.6 8.0 0.00 0.00 0.00 84 1011.9
20211024174504 25 168 3.2 12.9 0.00 0.00 0.00 87 1012.2
20211024174004 24 162 4.8 12.9 0.00 0.00 0.00 90 1012.2
20211024173504 24 143 4.8 12.9 0.00 0.00 0.00 91 1012.2
20211024173004 23 161 3.2 8.0 0.00 0.00 0.00 92 1012.5
20211024172504 23 152 4.8 8.0 0.00 0.00 0.00 93 1012.5
20211024172005 23 176 1.6 8.0 0.00 0.00 0.00 94 1012.9
20211024171504 23 176 3.2 8.0 0.00 0.00 0.00 95 1012.9
20211024171004 23 137 0.0 3.2 0.00 0.00 0.00 95 1012.9
20211024170504 24 142 0.0 3.2 0.00 0.00 0.00 94 1012.9
20211024170004 24 282 0.0 8.0 0.00 0.00 0.00 93 1012.9
20211024165504 24 228 1.6 8.0 0.00 0.00 0.00 92 1012.9
20211024165004 25 227 1.6 8.0 0.00 0.00 0.00 92 1012.9
20211024164504 25 172 1.6 8.0 0.00 0.00 0.00 91 1012.9
20211024164004 25 176 1.6 8.0 0.00 0.00 0.00 90 1012.9
20211024163504 25 217 4.8 12.9 0.00 0.00 0.00 90 1012.9
20211024163004 25 150 1.6 8.0 0.00 0.00 0.00 88 1012.9
20211024162503 24 207 4.8 12.9 0.00 0.00 0.00 86 1012.9
20211024162004 24 136 3.2 12.9 0.00 0.00 0.00 87 1012.9
20211024161505 24 143 3.2 8.0 0.00 0.00 0.00 88 1012.9
20211024161004 24 186 6.4 12.9 0.00 0.00 0.00 88 1012.9
20211024160504 24 146 8.0 16.1 0.00 0.00 0.00 88 1012.9
20211024160004 24 137 3.2 8.0 0.00 0.00 0.00 89 1012.9
20211024155504 23 117 8.0 12.9 0.00 0.00 0.00 88 1012.9
20211024155004 23 159 4.8 16.1 0.00 0.00 0.00 89 1012.9
20211024154504 23 165 4.8 12.9 0.00 0.00 0.00 88 1012.9
20211024154004 23 175 3.2 16.1 0.00 0.00 0.00 90 1012.9
20211024153504 23 122 4.8 12.9 0.00 0.00 0.00 90 1012.9
20211024153005 23 130 4.8 8.0 0.00 0.00 0.00 90 1012.9
20211024152504 23 157 3.2 8.0 0.00 0.00 0.00 90 1012.9
20211024152005 22 153 1.6 16.1 0.00 0.00 0.00 91 1013.2
20211024151504 22 171 3.2 8.0 0.00 0.00 0.00 91 1012.9
20211024151004 22 147 3.2 8.0 0.00 0.00 0.00 93 1012.9
20211024150504 22 148 3.2 8.0 0.00 0.00 0.00 94 1012.9
20211024150004 22 152 4.8 16.1 0.00 0.00 0.00 94 1012.9
20211024145504 22 137 8.0 16.1 0.00 0.00 0.00 94 1012.9
20211024145004 22 127 8.0 12.9 0.00 0.00 0.00 95 1012.9
20211024144504 21 146 4.8 12.9 0.00 0.00 0.00 95 1012.9
20211024144004 21 125 4.8 8.0 0.00 0.00 0.00 96 1012.5
20211024143504 21 140 3.2 8.0 0.00 0.00 0.00 97 1012.5
20211024143004 21 104 4.8 8.0 0.00 0.00 0.00 98 1012.9
20211024142504 21 152 4.8 8.0 0.00 0.00 0.00 98 1012.9
20211024142005 21 141 3.2 8.0 0.00 0.00 0.00 98 1012.9
20211024141504 21 122 4.8 8.0 0.00 0.00 0.00 99 1012.5
20211024141004 21 121 1.6 3.2 0.00 0.00 0.00 99 1012.5
20211024140504 21 117 4.8 8.0 0.00 0.00 0.00 98 1012.5
20211024140004 21 141 1.6 8.0 0.00 0.00 0.00 98 1012.2
20211024135504 21 113 1.6 8.0 0.00 0.00 0.00 98 1012.5
20211024135004 21 125 1.6 8.0 0.00 0.00 0.00 98 1012.2
20211024134505 21 121 3.2 8.0 0.00 0.00 0.00 98 1012.2
20211024134004 21 116 3.2 8.0 0.00 0.00 0.00 98 1011.9
20211024133504 21 149 3.2 8.0 0.00 0.00 0.00 97 1012.2
20211024133004 21 123 0.0 0.0 0.00 0.00 0.00 98 1012.2
20211024132504 21 120 0.0 3.2 0.00 0.00 0.00 98 1011.9
20211024132004 21 135 1.6 3.2 0.00 0.00 0.00 98 1011.9
20211024131504 21 118 3.2 3.2 0.00 0.00 0.00 98 1011.9
20211024131004 21 104 3.2 3.2 0.00 0.00 0.00 98 1011.9
20211024130505 21 118 0.0 3.2 0.00 0.00 0.00 98 1011.9
20211024130004 21 154 0.0 3.2 0.00 0.00 0.00 98 1011.9
20211024125504 21 123 0.0 8.0 0.00 0.00 0.00 98 1011.9
20211024125005 21 143 1.6 8.0 0.00 0.00 0.00 98 1011.5
20211024124504 21 136 0.0 3.2 0.00 0.00 0.00 98 1011.5
20211024124004 20 172 0.0 3.2 0.00 0.00 0.00 98 1011.5
20211024123504 20 160 1.6 3.2 0.00 0.00 0.00 98 1011.5
20211024123005 20 207 1.6 8.0 0.00 0.00 0.00 98 1011.5
20211024122503 20 166 0.0 3.2 0.00 0.00 0.00 98 1011.2
20211024122004 20 134 1.6 8.0 0.00 0.00 0.00 97 1011.2
20211024121504 20 137 0.0 8.0 0.00 0.00 0.00 97 1011.2
20211024121005 20 141 0.0 8.0 0.00 0.00 0.00 97 1011.2
20211024120504 20 169 1.6 8.0 0.00 0.00 0.00 97 1011.2
20211024120004 20 165 0.0 3.2 0.00 0.00 0.00 97 1011.2
20211024115504 20 175 0.0 3.2 0.00 0.00 0.00 97 1011.2
20211024115004 20 155 1.6 12.9 0.00 0.00 0.00 97 1011.2
20211024114504 20 127 0.0 3.2 0.00 0.00 0.00 97 1011.2
20211024114004 20 188 1.6 8.0 0.00 0.00 0.00 97 1011.1
20211024113504 20 138 1.6 8.0 0.00 0.00 0.00 97 1010.8
20211024113004 20 147 3.2 8.0 0.00 0.00 0.00 97 1010.8
20211024112508 20 138 0.0 8.0 0.00 0.00 0.00 97 1010.8
20211024112004 20 165 4.8 12.9 0.00 0.00 0.00 97 1011.2
20211024111505 20 180 3.2 8.0 0.00 0.00 0.00 97 1010.8
20211024111004 20 142 6.4 12.9 0.00 0.00 0.00 97 1010.8
20211024110504 20 164 8.0 16.1 0.00 0.00 0.00 97 1010.8
20211024110005 20 148 4.8 8.0 0.00 0.00 0.00 97 1010.8
20211024105504 20 146 1.6 12.9 0.00 0.00 0.00 97 1010.8
20211024105004 20 124 4.8 12.9 0.00 0.00 0.00 96 1011.2
20211024104504 20 140 1.6 8.0 0.00 0.00 0.00 96 1011.2
20211024104005 20 145 4.8 8.0 0.00 0.00 0.00 96 1011.2
20211024103504 20 166 4.8 8.0 0.00 0.00 0.00 96 1011.2
20211024103005 20 141 4.8 8.0 0.00 0.00 0.00 96 1011.2
20211024102504 20 179 6.4 12.9 0.00 0.00 0.00 96 1011.2
20211024102004 20 141 1.6 8.0 0.00 0.00 0.00 96 1010.9
20211024101504 20 164 6.4 12.9 0.00 0.00 0.00 96 1010.8
20211024101004 20 179 4.8 12.9 0.00 0.00 0.00 96 1010.8
20211024100504 20 181 3.2 8.0 0.00 0.00 0.00 96 1010.8
20211024100004 20 181 3.2 12.9 0.00 0.00 0.00 97 1010.8
20211024095508 20 178 3.2 12.9 0.00 0.00 0.00 97 1010.8
20211024095004 20 171 6.4 12.9 0.00 0.00 0.00 97 1010.8
20211024094504 20 168 9.7 16.1 0.00 0.00 0.00 97 1010.8
20211024094004 20 142 4.8 12.9 0.00 0.00 0.00 97 1010.8
20211024093505 20 151 4.8 16.1 0.00 0.00 0.00 97 1010.8
20211024093004 20 159 8.0 16.1 0.00 0.00 0.00 97 1010.8
20211024092504 20 155 4.8 12.9 0.00 0.00 0.00 97 1010.8
20211024092004 20 133 1.6 8.0 0.00 0.00 0.00 97 1010.8
20211024091504 20 167 8.0 12.9 0.00 0.00 0.00 97 1010.8
20211024091004 20 199 4.8 12.9 0.00 0.00 0.00 97 1011.2
20211024090504 20 160 3.2 12.9 0.00 0.00 0.00 98 1010.8
20211024090005 20 165 4.8 12.9 0.00 0.00 0.00 98 1011.2
20211024085504 20 215 3.2 8.0 0.00 0.00 0.00 98 1011.2
20211024085004 20 155 1.6 8.0 0.00 0.00 0.00 98 1011.2
20211024084504 20 197 3.2 8.0 0.00 0.00 0.00 98 1011.2
20211024084005 20 220 1.6 8.0 0.00 0.00 0.00 98 1011.2
20211024083504 20 145 1.6 8.0 0.00 0.00 0.00 98 1011.2
20211024083004 20 197 4.8 12.9 0.00 0.00 0.00 98 1011.2
20211024082504 20 124 0.0 3.2 0.00 0.00 0.00 98 1011.5
20211024082004 19 243 1.6 8.0 0.00 0.00 0.00 99 1011.5
20211024081504 19 166 3.2 8.0 0.00 0.00 0.00 99 1011.5
20211024081004 19 150 1.6 8.0 0.00 0.00 0.00 99 1011.5
20211024080504 19 133 3.2 8.0 0.00 0.00 0.00 99 1011.5
20211024080004 19 154 1.6 3.2 0.00 0.00 0.00 99 1011.9
20211024075504 19 174 1.6 3.2 0.00 0.00 0.00 98 1011.9
20211024075004 19 143 0.0 3.2 0.00 0.00 0.00 98 1011.5
20211024074504 19 139 0.0 3.2 0.00 0.00 0.00 98 1011.6
20211024074004 19 141 1.6 8.0 0.00 0.00 0.00 98 1011.9
20211024073504 19 154 3.2 8.0 0.00 0.00 0.00 98 1011.6
20211024073005 19 137 1.6 8.0 0.00 0.00 0.00 98 1011.9
20211024072504 19 159 0.0 8.0 0.00 0.00 0.00 98 1011.5
20211024072004 19 139 1.6 8.0 0.00 0.00 0.00 98 1011.5
20211024071504 19 125 3.2 8.0 0.00 0.00 0.00 98 1011.5
20211024071004 19 154 4.8 8.0 0.00 0.00 0.00 98 1011.5
20211024070504 19 132 4.8 12.9 0.00 0.00 0.00 97 1011.5
20211024070005 19 137 3.2 12.9 0.00 0.00 0.00 97 1011.8
20211024065504 20 156 3.2 8.0 0.00 0.00 0.00 97 1011.9
20211024065004 20 124 3.2 8.0 0.00 0.00 0.00 97 1011.9
20211024064504 20 118 3.2 8.0 0.00 0.00 0.00 97 1012.1
20211024064004 20 139 3.2 12.9 0.00 0.00 0.00 97 1011.9
20211024063504 20 132 3.2 8.0 0.00 0.00 0.00 96 1011.9
20211024063004 20 142 1.6 8.0 0.00 0.00 0.00 96 1011.9
20211024062505 20 134 6.4 8.0 0.00 0.00 0.00 96 1011.9
20211024062005 20 122 3.2 12.9 0.00 0.00 0.00 96 1011.9
20211024061504 20 161 4.8 20.9 0.00 0.00 0.00 96 1011.9
20211024061004 20 151 1.6 8.0 0.00 0.00 0.00 95 1011.9
20211024060504 20 155 3.2 12.9 0.00 0.00 0.00 95 1011.9
20211024060004 20 175 3.2 8.0 0.00 0.00 0.00 95 1011.9
20211024055504 20 136 1.6 8.0 0.00 0.00 0.00 94 1011.9
20211024055004 20 155 3.2 16.1 0.00 0.00 0.00 94 1011.9
20211024054504 20 142 4.8 8.0 0.00 0.00 0.00 94 1011.9
20211024054003 20 157 4.8 16.1 0.00 0.00 0.00 94 1011.9
20211024053504 20 133 4.8 16.1 0.00 0.00 0.00 94 1011.9
20211024053004 20 147 8.0 16.1 0.00 0.00 0.00 94 1011.9
20211024052504 20 124 4.8 8.0 0.00 0.00 0.00 93 1011.9
20211024052004 20 109 4.8 8.0 0.00 0.00 0.00 92 1012.2
20211024051504 20 125 3.2 8.0 0.00 0.00 0.00 91 1011.9
20211024051004 21 136 3.2 16.1 0.00 0.00 0.00 90 1012.2
20211024050504 21 147 4.8 8.0 0.00 0.00 0.00 90 1012.2
20211024050004 21 152 3.2 8.0 0.00 0.00 0.00 89 1012.2
20211024045504 21 143 4.8 12.9 0.00 0.00 0.00 89 1012.2
20211024045005 21 141 3.2 16.1 0.00 0.00 0.00 89 1012.2
20211024044504 21 155 9.7 16.1 0.00 0.00 0.00 88 1012.2
20211024044004 21 138 3.2 12.9 0.00 0.00 0.00 89 1012.2
20211024043504 21 182 4.8 12.9 0.00 0.00 0.00 89 1012.2
20211024043005 21 159 4.8 12.9 0.00 0.00 0.00 88 1012.2
20211024042504 21 147 4.8 12.9 0.00 0.00 0.00 88 1012.2
20211024042004 21 167 4.8 8.0 0.00 0.00 0.00 88 1012.2
20211024041504 21 193 4.8 12.9 0.00 0.00 0.00 88 1012.2
20211024041004 21 146 3.2 12.9 0.00 0.00 0.00 88 1012.2
20211024040504 21 166 4.8 12.9 0.00 0.00 0.00 88 1012.2
20211024040004 21 126 4.8 8.0 0.00 0.00 0.00 88 1011.9
20211024035504 21 125 8.0 16.1 0.00 0.00 0.00 88 1012.2
20211024035004 21 115 6.4 12.9 0.00 0.00 0.00 89 1011.9
20211024034504 21 123 3.2 8.0 0.00 0.00 0.00 89 1011.9
20211024034004 21 138 4.8 12.9 0.00 0.00 0.00 89 1011.9
20211024033504 21 135 4.8 12.9 0.00 0.00 0.00 88 1011.9
20211024033004 21 155 4.8 8.0 0.00 0.00 0.00 88 1011.9
20211024032504 21 152 3.2 12.9 0.00 0.00 0.00 88 1011.9
20211024032005 21 150 4.8 12.9 0.00 0.00 0.00 88 1011.9